| time (UTC) | temp F | wind direction | speed MPH | gust MPH | rain 1hr in | rain 24hr in | rain mn in | humidity % | barometer mb |
| 20260509185521 | 62 | 233 | 4.0 | 9.0 | 0.00 | 0.24 | 0.22 | 73 | 1009.1 |
| 20260509185019 | 62 | 234 | 3.0 | 8.0 | 0.00 | 0.24 | 0.22 | 75 | 1009.1 |
| 20260509184537 | 61 | 297 | 1.0 | 8.0 | 0.00 | 0.24 | 0.22 | 76 | 1009.1 |
| 20260509184022 | 61 | 158 | 3.0 | 8.0 | 0.00 | 0.24 | 0.22 | 77 | 1009.3 |
| 20260509183518 | 61 | 280 | 2.0 | 9.0 | 0.00 | 0.24 | 0.22 | 76 | 1009.3 |
| 20260509183051 | 60 | 178 | 3.0 | 9.0 | 0.00 | 0.24 | 0.22 | 78 | 1009.3 |
| 20260509182521 | 60 | 299 | 3.0 | 9.0 | 0.00 | 0.24 | 0.22 | 78 | 1009.4 |
| 20260509182022 | 60 | 81 | 1.0 | 5.0 | 0.00 | 0.24 | 0.22 | 82 | 1009.4 |
| 20260509181543 | 59 | 0 | 2.0 | 6.0 | 0.00 | 0.24 | 0.22 | 81 | 1009.5 |
| 20260509181019 | 58 | 224 | 2.0 | 7.0 | 0.00 | 0.24 | 0.22 | 81 | 1009.6 |
| 20260509180526 | 58 | 330 | 1.0 | 7.0 | 0.00 | 0.24 | 0.22 | 83 | 1009.6 |
| 20260509180042 | 58 | 150 | 2.0 | 5.0 | 0.00 | 0.24 | 0.22 | 82 | 1009.5 |
| 20260509175519 | 58 | 174 | 2.0 | 5.0 | 0.00 | 0.24 | 0.22 | 82 | 1009.6 |
| 20260509175029 | 58 | 115 | 2.0 | 6.0 | 0.00 | 0.24 | 0.22 | 82 | 1009.6 |
| 20260509174548 | 58 | 115 | 2.0 | 7.0 | 0.00 | 0.24 | 0.22 | 81 | 1009.5 |
| 20260509174024 | 58 | 171 | 3.0 | 12.0 | 0.00 | 0.24 | 0.22 | 80 | 1009.5 |
| 20260509173517 | 58 | 239 | 1.0 | 12.0 | 0.00 | 0.24 | 0.22 | 80 | 1009.3 |
| 20260509173042 | 58 | 251 | 4.0 | 11.0 | 0.00 | 0.24 | 0.22 | 82 | 1009.3 |
| 20260509172524 | 58 | 223 | 2.0 | 11.0 | 0.00 | 0.24 | 0.22 | 82 | 1009.2 |
| 20260509172021 | 58 | 252 | 5.0 | 11.0 | 0.00 | 0.24 | 0.22 | 81 | 1009.2 |
| 20260509171541 | 58 | 226 | 3.0 | 11.0 | 0.00 | 0.24 | 0.22 | 82 | 1009.1 |
| 20260509171019 | 58 | 138 | 4.0 | 11.0 | 0.00 | 0.24 | 0.22 | 83 | 1009.0 |
| 20260509170517 | 58 | 304 | 2.0 | 9.0 | 0.00 | 0.24 | 0.22 | 84 | 1009.1 |
| 20260509170035 | 57 | 184 | 2.0 | 10.0 | 0.00 | 0.24 | 0.22 | 86 | 1009.0 |
| 20260509165518 | 56 | 241 | 3.0 | 10.0 | 0.00 | 0.24 | 0.22 | 87 | 1009.1 |
| 20260509165018 | 56 | 276 | 3.0 | 7.0 | 0.00 | 0.24 | 0.22 | 88 | 1009.1 |
| 20260509164535 | 56 | 181 | 2.0 | 5.0 | 0.00 | 0.24 | 0.22 | 89 | 1009.1 |
| 20260509164018 | 56 | 295 | 0.0 | 7.0 | 0.00 | 0.24 | 0.22 | 91 | 1009.1 |
| 20260509163516 | 55 | 154 | 1.0 | 7.0 | 0.00 | 0.24 | 0.22 | 91 | 1009.1 |
| 20260509163046 | 54 | 304 | 2.0 | 7.0 | 0.00 | 0.24 | 0.22 | 90 | 1009.1 |
| 20260509162522 | 54 | 229 | 1.0 | 4.0 | 0.01 | 0.24 | 0.22 | 91 | 1009.0 |
| 20260509162019 | 53 | 172 | 1.0 | 5.0 | 0.01 | 0.24 | 0.22 | 91 | 1009.1 |
| 20260509161542 | 53 | 113 | 1.0 | 5.0 | 0.01 | 0.24 | 0.22 | 91 | 1009.1 |
| 20260509161020 | 53 | 148 | 2.0 | 5.0 | 0.01 | 0.24 | 0.22 | 91 | 1009.3 |
| 20260509160518 | 53 | 0 | 1.0 | 4.0 | 0.01 | 0.24 | 0.22 | 91 | 1009.3 |
| 20260509160034 | 53 | 331 | 1.0 | 4.0 | 0.01 | 0.24 | 0.22 | 91 | 1009.1 |
| 20260509155519 | 53 | 0 | 1.0 | 5.0 | 0.02 | 0.24 | 0.22 | 92 | 1009.1 |
| 20260509155018 | 52 | 166 | 1.0 | 5.0 | 0.02 | 0.24 | 0.22 | 92 | 1008.8 |
| 20260509154534 | 52 | 266 | 1.0 | 5.0 | 0.02 | 0.24 | 0.22 | 92 | 1008.7 |
| 20260509154017 | 52 | 217 | 1.0 | 4.0 | 0.02 | 0.24 | 0.22 | 92 | 1008.6 |
| 20260509153518 | 52 | 184 | 0.0 | 6.0 | 0.03 | 0.24 | 0.22 | 92 | 1008.7 |
| 20260509153048 | 52 | 193 | 0.0 | 7.0 | 0.03 | 0.24 | 0.22 | 92 | 1008.4 |
| 20260509152518 | 52 | 273 | 1.0 | 7.0 | 0.02 | 0.23 | 0.21 | 92 | 1008.9 |
| 20260509152018 | 52 | 293 | 2.0 | 9.0 | 0.02 | 0.23 | 0.21 | 92 | 1009.0 |
| 20260509151541 | 52 | 0 | 3.0 | 9.0 | 0.02 | 0.23 | 0.21 | 92 | 1009.0 |
| 20260509151021 | 52 | 281 | 2.0 | 8.0 | 0.03 | 0.23 | 0.21 | 92 | 1009.1 |
| 20260509150521 | 52 | 289 | 2.0 | 8.0 | 0.03 | 0.23 | 0.21 | 92 | 1009.0 |
| 20260509150042 | 52 | 211 | 2.0 | 7.0 | 0.03 | 0.23 | 0.21 | 92 | 1009.0 |
| 20260509145520 | 52 | 72 | 1.0 | 7.0 | 0.03 | 0.22 | 0.20 | 92 | 1009.1 |
| 20260509145017 | 52 | 174 | 2.0 | 9.0 | 0.03 | 0.22 | 0.20 | 92 | 1009.0 |
| 20260509144534 | 52 | 186 | 2.0 | 9.0 | 0.04 | 0.22 | 0.20 | 92 | 1009.0 |
| 20260509144017 | 52 | 220 | 1.0 | 7.0 | 0.04 | 0.22 | 0.20 | 92 | 1009.0 |
| 20260509143518 | 52 | 181 | 2.0 | 7.0 | 0.03 | 0.21 | 0.19 | 92 | 1009.0 |
| 20260509143038 | 51 | 219 | 3.0 | 8.0 | 0.04 | 0.21 | 0.19 | 92 | 1009.1 |
| 20260509142518 | 51 | 207 | 2.0 | 8.0 | 0.04 | 0.21 | 0.19 | 92 | 1009.1 |
| 20260509142017 | 51 | 202 | 2.0 | 6.0 | 0.04 | 0.21 | 0.19 | 92 | 1009.3 |
| 20260509141534 | 51 | 219 | 1.0 | 8.0 | 0.04 | 0.21 | 0.19 | 92 | 1009.3 |
| 20260509141016 | 51 | 255 | 2.0 | 8.0 | 0.03 | 0.20 | 0.18 | 92 | 1009.3 |
| 20260509140517 | 51 | 234 | 3.0 | 8.0 | 0.04 | 0.20 | 0.18 | 92 | 1009.3 |
| 20260509140050 | 51 | 231 | 2.0 | 6.0 | 0.04 | 0.20 | 0.18 | 92 | 1009.4 |
| 20260509135518 | 51 | 207 | 1.0 | 6.0 | 0.03 | 0.19 | 0.17 | 92 | 1009.3 |
| 20260509135017 | 51 | 139 | 2.0 | 5.0 | 0.04 | 0.19 | 0.17 | 92 | 1009.4 |
| 20260509134536 | 51 | 0 | 1.0 | 4.0 | 0.04 | 0.18 | 0.16 | 92 | 1009.3 |
| 20260509134017 | 51 | 165 | 1.0 | 5.0 | 0.04 | 0.18 | 0.16 | 92 | 1009.3 |
| 20260509133516 | 51 | 231 | 1.0 | 5.0 | 0.04 | 0.18 | 0.16 | 92 | 1009.4 |
| 20260509133035 | 51 | 205 | 1.0 | 5.0 | 0.04 | 0.17 | 0.15 | 92 | 1009.4 |
| 20260509132519 | 51 | 188 | 2.0 | 5.0 | 0.04 | 0.17 | 0.15 | 92 | 1009.5 |
| 20260509132018 | 51 | 156 | 1.0 | 9.0 | 0.04 | 0.17 | 0.15 | 92 | 1009.5 |
| 20260509131535 | 51 | 258 | 2.0 | 9.0 | 0.04 | 0.17 | 0.15 | 92 | 1009.6 |
| 20260509131017 | 51 | 235 | 2.0 | 7.0 | 0.04 | 0.17 | 0.15 | 92 | 1009.5 |
| 20260509130520 | 51 | 300 | 1.0 | 6.0 | 0.04 | 0.16 | 0.14 | 92 | 1009.5 |
| 20260509130035 | 51 | 193 | 2.0 | 6.0 | 0.04 | 0.16 | 0.14 | 92 | 1009.5 |
| 20260509125523 | 51 | 198 | 1.0 | 6.0 | 0.04 | 0.16 | 0.14 | 92 | 1009.5 |
| 20260509125019 | 51 | 247 | 0.0 | 3.0 | 0.04 | 0.15 | 0.13 | 92 | 1009.5 |
| 20260509124540 | 50 | 192 | 1.0 | 6.0 | 0.04 | 0.14 | 0.12 | 92 | 1009.6 |
| 20260509124018 | 50 | 158 | 1.0 | 6.0 | 0.04 | 0.14 | 0.12 | 92 | 1009.6 |
| 20260509123518 | 50 | 170 | 0.0 | 4.0 | 0.05 | 0.14 | 0.12 | 92 | 1009.7 |
| 20260509123047 | 50 | 218 | 1.0 | 4.0 | 0.04 | 0.13 | 0.11 | 92 | 1009.6 |
| 20260509122517 | 50 | 96 | 0.0 | 4.0 | 0.05 | 0.13 | 0.11 | 92 | 1009.7 |
| 20260509122018 | 50 | 0 | 0.0 | 4.0 | 0.05 | 0.13 | 0.11 | 92 | 1009.7 |
| 20260509121537 | 50 | 105 | 1.0 | 6.0 | 0.06 | 0.13 | 0.11 | 92 | 1009.7 |
| 20260509121018 | 50 | 215 | 1.0 | 6.0 | 0.05 | 0.12 | 0.10 | 92 | 1009.8 |
| 20260509120519 | 50 | 191 | 2.0 | 6.0 | 0.05 | 0.12 | 0.10 | 91 | 1009.7 |
| 20260509120037 | 50 | 122 | 1.0 | 7.0 | 0.06 | 0.12 | 0.10 | 91 | 1009.7 |
| 20260509115517 | 50 | 155 | 2.0 | 7.0 | 0.06 | 0.12 | 0.10 | 91 | 1009.7 |
| 20260509115017 | 50 | 276 | 2.0 | 5.0 | 0.05 | 0.11 | 0.09 | 91 | 1009.7 |
| 20260509114536 | 50 | 231 | 1.0 | 5.0 | 0.04 | 0.10 | 0.08 | 91 | 1009.6 |
| 20260509114019 | 50 | 100 | 1.0 | 6.0 | 0.04 | 0.10 | 0.08 | 91 | 1009.5 |
| 20260509113519 | 50 | 246 | 1.0 | 6.0 | 0.04 | 0.09 | 0.07 | 91 | 1009.5 |
| 20260509113039 | 50 | 149 | 2.0 | 6.0 | 0.04 | 0.09 | 0.07 | 91 | 1009.6 |
| 20260509112518 | 50 | 219 | 1.0 | 6.0 | 0.03 | 0.08 | 0.06 | 91 | 1009.6 |
| 20260509112018 | 50 | 0 | 2.0 | 7.0 | 0.03 | 0.08 | 0.06 | 91 | 1009.5 |
| 20260509111538 | 50 | 194 | 1.0 | 7.0 | 0.02 | 0.07 | 0.05 | 91 | 1009.5 |
| 20260509111020 | 50 | 248 | 2.0 | 5.0 | 0.03 | 0.07 | 0.05 | 90 | 1009.4 |
| 20260509110518 | 50 | 153 | 1.0 | 3.0 | 0.03 | 0.07 | 0.05 | 90 | 1009.4 |
| 20260509110039 | 50 | 84 | 0.0 | 5.0 | 0.02 | 0.06 | 0.04 | 90 | 1009.4 |
| 20260509105517 | 50 | 201 | 1.0 | 5.0 | 0.02 | 0.06 | 0.04 | 90 | 1009.4 |
| 20260509105018 | 50 | 143 | 1.0 | 6.0 | 0.02 | 0.06 | 0.04 | 90 | 1009.4 |
| 20260509104540 | 50 | 227 | 1.0 | 6.0 | 0.02 | 0.06 | 0.04 | 90 | 1009.4 |
| 20260509104018 | 50 | 263 | 0.0 | 6.0 | 0.02 | 0.06 | 0.04 | 90 | 1009.4 |
| 20260509103518 | 50 | 231 | 1.0 | 6.0 | 0.01 | 0.05 | 0.03 | 90 | 1009.4 |
| 20260509103038 | 50 | 178 | 0.0 | 3.0 | 0.01 | 0.05 | 0.03 | 90 | 1009.5 |
| 20260509102516 | 50 | 226 | 1.0 | 3.0 | 0.02 | 0.05 | 0.03 | 90 | 1009.4 |
| 20260509102018 | 50 | 143 | 0.0 | 5.0 | 0.02 | 0.05 | 0.03 | 89 | 1009.4 |
| 20260509101536 | 50 | 174 | 1.0 | 6.0 | 0.02 | 0.05 | 0.03 | 89 | 1009.4 |
| 20260509101016 | 50 | 167 | 2.0 | 6.0 | 0.01 | 0.04 | 0.02 | 89 | 1009.3 |
| 20260509100517 | 50 | 217 | 2.0 | 6.0 | 0.02 | 0.04 | 0.02 | 89 | 1009.4 |
| 20260509100033 | 50 | 89 | 1.0 | 5.0 | 0.02 | 0.04 | 0.02 | 89 | 1009.4 |
| 20260509095521 | 50 | 143 | 1.0 | 5.0 | 0.02 | 0.04 | 0.02 | 89 | 1009.5 |
| 20260509095017 | 50 | 244 | 0.0 | 6.0 | 0.02 | 0.04 | 0.02 | 89 | 1009.5 |
| 20260509094542 | 50 | 0 | 2.0 | 6.0 | 0.02 | 0.04 | 0.02 | 89 | 1009.5 |
| 20260509094018 | 50 | 158 | 2.0 | 7.0 | 0.02 | 0.04 | 0.02 | 89 | 1009.6 |
| 20260509093518 | 50 | 217 | 1.0 | 7.0 | 0.02 | 0.04 | 0.02 | 90 | 1009.7 |
| 20260509093043 | 50 | 212 | 2.0 | 7.0 | 0.02 | 0.04 | 0.02 | 90 | 1009.7 |
| 20260509092517 | 49 | 203 | 1.0 | 5.0 | 0.01 | 0.03 | 0.01 | 91 | 1009.8 |
| 20260509092021 | 49 | 214 | 1.0 | 5.0 | 0.01 | 0.03 | 0.01 | 91 | 1009.9 |
| 20260509091534 | 49 | 0 | 0.0 | 4.0 | 0.01 | 0.03 | 0.01 | 91 | 1009.8 |
| 20260509091017 | 49 | 147 | 1.0 | 4.0 | 0.00 | 0.02 | 0.00 | 92 | 1009.8 |
| 20260509090520 | 49 | 0 | 0.0 | 3.0 | 0.00 | 0.02 | 0.00 | 92 | 1009.8 |
| 20260509090034 | 49 | 122 | 0.0 | 1.0 | 0.00 | 0.02 | 0.00 | 92 | 1009.8 |
| 20260509085519 | 49 | 0 | 0.0 | 2.0 | 0.00 | 0.02 | 0.00 | 92 | 1009.8 |
| 20260509085017 | 49 | 103 | 0.0 | 2.0 | 0.00 | 0.02 | 0.00 | 92 | 1009.7 |
| 20260509084539 | 48 | 92 | 0.0 | 1.0 | 0.00 | 0.02 | 0.00 | 92 | 1009.8 |
| 20260509084023 | 48 | 0 | 0.0 | 1.0 | 0.00 | 0.02 | 0.00 | 92 | 1009.7 |
| 20260509083520 | 48 | 0 | 0.0 | 0.0 | 0.00 | 0.02 | 0.00 | 92 | 1009.6 |
| 20260509083038 | 48 | 0 | 0.0 | 0.0 | 0.00 | 0.02 | 0.00 | 92 | 1009.7 |
| 20260509082517 | 48 | 0 | 0.0 | 0.0 | 0.00 | 0.02 | 0.00 | 92 | 1009.6 |
| 20260509082019 | 48 | 0 | 0.0 | 2.0 | 0.00 | 0.02 | 0.00 | 92 | 1009.7 |
| 20260509081537 | 48 | 0 | 0.0 | 3.0 | 0.00 | 0.02 | 0.00 | 92 | 1009.6 |
| 20260509081019 | 48 | 0 | 1.0 | 3.0 | 0.00 | 0.02 | 0.00 | 92 | 1009.7 |
| 20260509080518 | 48 | 0 | 0.0 | 1.0 | 0.00 | 0.02 | 0.00 | 91 | 1009.4 |
| 20260509080034 | 48 | 0 | 0.0 | 1.0 | 0.00 | 0.02 | 0.00 | 91 | 1009.4 |
| 20260509075517 | 48 | 279 | 0.0 | 1.0 | 0.00 | 0.02 | 0.00 | 91 | 1009.3 |
| 20260509075017 | 49 | 0 | 0.0 | 0.0 | 0.00 | 0.02 | 0.00 | 91 | 1009.1 |
| 20260509074545 | 49 | 0 | 0.0 | 0.0 | 0.00 | 0.02 | 0.00 | 91 | 1008.9 |
| 20260509074016 | 49 | 0 | 0.0 | 0.0 | 0.00 | 0.02 | 0.00 | 90 | 1008.8 |
| 20260509073521 | 48 | 0 | 0.0 | 0.0 | 0.00 | 0.02 | 0.00 | 90 | 1008.8 |
| 20260509073042 | 48 | 0 | 0.0 | 0.0 | 0.00 | 0.02 | 0.00 | 90 | 1008.8 |
| 20260509072517 | 48 | 0 | 0.0 | 0.0 | 0.00 | 0.02 | 0.00 | 90 | 1008.9 |
| 20260509072022 | 48 | 0 | 0.0 | 0.0 | 0.00 | 0.02 | 0.00 | 90 | 1008.9 |
| 20260509071538 | 48 | 0 | 0.0 | 1.0 | 0.00 | 0.02 | 0.00 | 91 | 1008.9 |
| 20260509071016 | 48 | 0 | 0.0 | 1.0 | 0.00 | 0.02 | 0.00 | 91 | 1008.8 |
| 20260509070521 | 48 | 0 | 0.0 | 1.0 | 0.00 | 0.02 | 0.00 | 91 | 1008.8 |
| 20260509070042 | 48 | 0 | 0.0 | 1.0 | 0.00 | 0.02 | 0.00 | 91 | 1008.9 |
| 20260509065516 | 48 | 0 | 0.0 | 0.0 | 0.00 | 0.02 | 0.00 | 91 | 1009.0 |
| 20260509065019 | 48 | 0 | 0.0 | 0.0 | 0.00 | 0.02 | 0.00 | 91 | 1009.2 |
| 20260509064546 | 48 | 0 | 0.0 | 0.0 | 0.00 | 0.02 | 0.00 | 91 | 1009.4 |
| 20260509064017 | 48 | 0 | 0.0 | 0.0 | 0.00 | 0.02 | 0.00 | 91 | 1009.4 |
| 20260509063523 | 48 | 0 | 0.0 | 0.0 | 0.00 | 0.02 | 0.00 | 91 | 1009.5 |
| 20260509063034 | 48 | 0 | 0.0 | 0.0 | 0.00 | 0.02 | 0.00 | 91 | 1009.5 |
| 20260509062518 | 48 | 0 | 0.0 | 1.0 | 0.00 | 0.02 | 0.00 | 91 | 1009.6 |
| 20260509062018 | 48 | 0 | 0.0 | 1.0 | 0.00 | 0.02 | 0.00 | 91 | 1009.6 |
| 20260509061534 | 48 | 142 | 0.0 | 1.0 | 0.00 | 0.02 | 0.00 | 91 | 1009.7 |
| 20260509061019 | 48 | 0 | 0.0 | 0.0 | 0.00 | 0.02 | 0.00 | 91 | 1009.9 |
| 20260509060518 | 48 | 0 | 0.0 | 0.0 | 0.00 | 0.02 | 0.00 | 91 | 1010.0 |
| 20260509060040 | 48 | 0 | 0.0 | 0.0 | 0.00 | 0.02 | 0.00 | 90 | 1010.1 |
| 20260509055522 | 48 | 0 | 0.0 | 0.0 | 0.00 | 0.02 | 0.00 | 90 | 1010.2 |
| 20260509055020 | 48 | 0 | 0.0 | 0.0 | 0.00 | 0.02 | 0.00 | 90 | 1010.2 |
| 20260509054551 | 49 | 0 | 0.0 | 0.0 | 0.00 | 0.02 | 0.00 | 90 | 1010.1 |
| 20260509054019 | 49 | 0 | 0.0 | 1.0 | 0.00 | 0.02 | 0.00 | 90 | 1010.1 |
| 20260509053520 | 49 | 0 | 0.0 | 1.0 | 0.00 | 0.02 | 0.00 | 90 | 1010.3 |
| 20260509053037 | 49 | 0 | 0.0 | 1.0 | 0.00 | 0.02 | 0.00 | 90 | 1010.3 |
| 20260509052518 | 49 | 0 | 0.0 | 2.0 | 0.00 | 0.02 | 0.00 | 90 | 1010.4 |
| 20260509052019 | 49 | 143 | 0.0 | 2.0 | 0.00 | 0.02 | 0.00 | 90 | 1010.4 |
| 20260509051537 | 49 | 109 | 0.0 | 2.0 | 0.00 | 0.02 | 0.00 | 90 | 1010.3 |
| 20260509051018 | 49 | 0 | 0.0 | 2.0 | 0.00 | 0.02 | 0.00 | 90 | 1010.4 |
| 20260509050517 | 49 | 102 | 1.0 | 2.0 | 0.00 | 0.02 | 0.00 | 90 | 1010.4 |
| 20260509050045 | 49 | 125 | 1.0 | 2.0 | 0.00 | 0.02 | 0.00 | 90 | 1010.4 |
| 20260509045518 | 49 | 0 | 0.0 | 3.0 | 0.00 | 0.02 | 0.00 | 90 | 1010.4 |
| 20260509045017 | 49 | 76 | 0.0 | 3.0 | 0.00 | 0.02 | 0.00 | 90 | 1010.4 |
| 20260509044539 | 49 | 113 | 1.0 | 3.0 | 0.00 | 0.02 | 0.00 | 90 | 1010.4 |
| 20260509044020 | 49 | 0 | 2.0 | 3.0 | 0.00 | 0.02 | 0.00 | 90 | 1010.5 |
| 20260509043519 | 49 | 91 | 0.0 | 2.0 | 0.00 | 0.02 | 0.00 | 90 | 1010.5 |
| 20260509043052 | 49 | 0 | 0.0 | 0.0 | 0.00 | 0.02 | 0.00 | 89 | 1010.8 |
| 20260509042520 | 49 | 0 | 0.0 | 2.0 | 0.00 | 0.02 | 0.00 | 89 | 1010.8 |
| 20260509042022 | 50 | 0 | 0.0 | 2.0 | 0.00 | 0.02 | 0.00 | 90 | 1010.7 |
| 20260509041538 | 50 | 131 | 1.0 | 3.0 | 0.00 | 0.02 | 0.00 | 89 | 1010.7 |
| 20260509041018 | 50 | 119 | 1.0 | 3.0 | 0.00 | 0.02 | 0.00 | 89 | 1010.8 |
| 20260509040519 | 50 | 127 | 1.0 | 2.0 | 0.01 | 0.02 | 0.00 | 89 | 1010.9 |
| 20260509040037 | 50 | 96 | 0.0 | 2.0 | 0.01 | 0.02 | 0.00 | 89 | 1011.1 |
| 20260509035525 | 50 | 124 | 1.0 | 2.0 | 0.01 | 0.02 | 0.02 | 89 | 1011.2 |
| 20260509035019 | 50 | 0 | 0.0 | 1.0 | 0.01 | 0.02 | 0.02 | 89 | 1011.3 |
| 20260509034535 | 50 | 0 | 0.0 | 1.0 | 0.01 | 0.02 | 0.02 | 89 | 1011.4 |
| 20260509034020 | 50 | 0 | 0.0 | 1.0 | 0.01 | 0.02 | 0.02 | 89 | 1011.4 |
| 20260509033519 | 50 | 0 | 0.0 | 1.0 | 0.01 | 0.02 | 0.02 | 89 | 1011.5 |
| 20260509033040 | 50 | 0 | 0.0 | 1.0 | 0.01 | 0.02 | 0.02 | 88 | 1011.7 |
| 20260509032519 | 50 | 0 | 0.0 | 2.0 | 0.01 | 0.02 | 0.02 | 88 | 1011.7 |
| 20260509032019 | 50 | 0 | 0.0 | 2.0 | 0.01 | 0.02 | 0.02 | 88 | 1011.7 |
| 20260509031552 | 50 | 113 | 0.0 | 1.0 | 0.02 | 0.02 | 0.02 | 88 | 1011.8 |
| 20260509031021 | 50 | 119 | 0.0 | 1.0 | 0.02 | 0.02 | 0.02 | 88 | 1011.9 |
| 20260509030521 | 50 | 0 | 0.0 | 1.0 | 0.01 | 0.01 | 0.01 | 88 | 1011.9 |
| 20260509030039 | 50 | 72 | 0.0 | 1.0 | 0.01 | 0.01 | 0.01 | 88 | 1011.9 |
| 20260509025519 | 50 | 0 | 0.0 | 1.0 | 0.01 | 0.01 | 0.01 | 88 | 1011.9 |
| 20260509025019 | 50 | 0 | 0.0 | 2.0 | 0.01 | 0.01 | 0.01 | 88 | 1011.9 |
| 20260509024539 | 50 | 0 | 1.0 | 2.0 | 0.01 | 0.01 | 0.01 | 87 | 1012.1 |
| 20260509024020 | 50 | 0 | 0.0 | 2.0 | 0.01 | 0.01 | 0.01 | 87 | 1012.1 |
| 20260509023519 | 50 | 289 | 0.0 | 2.0 | 0.01 | 0.01 | 0.01 | 87 | 1012.1 |
| 20260509023035 | 51 | 0 | 1.0 | 2.0 | 0.01 | 0.01 | 0.01 | 86 | 1012.1 |
| 20260509022520 | 51 | 0 | 0.0 | 1.0 | 0.01 | 0.01 | 0.01 | 86 | 1012.1 |
| 20260509022018 | 50 | 0 | 0.0 | 2.0 | 0.01 | 0.01 | 0.01 | 85 | 1012.1 |
| 20260509021534 | 51 | 0 | 0.0 | 2.0 | 0.00 | 0.00 | 0.00 | 85 | 1012.0 |
| 20260509021019 | 51 | 297 | 0.0 | 1.0 | 0.00 | 0.00 | 0.00 | 84 | 1011.9 |
| 20260509020520 | 51 | 0 | 0.0 | 0.0 | 0.00 | 0.00 | 0.00 | 84 | 1011.7 |
| 20260509020039 | 51 | 0 | 0.0 | 0.0 | 0.00 | 0.00 | 0.00 | 83 | 1011.6 |
| 20260509015519 | 51 | 0 | 0.0 | 0.0 | 0.00 | 0.00 | 0.00 | 83 | 1011.4 |
| 20260509015018 | 52 | 0 | 0.0 | 1.0 | 0.00 | 0.00 | 0.00 | 81 | 1011.5 |
| 20260509014536 | 52 | 0 | 0.0 | 2.0 | 0.00 | 0.00 | 0.00 | 80 | 1011.4 |
| 20260509014020 | 52 | 0 | 0.0 | 2.0 | 0.00 | 0.00 | 0.00 | 79 | 1011.4 |
| 20260509013517 | 52 | 340 | 0.0 | 2.0 | 0.00 | 0.00 | 0.00 | 78 | 1011.2 |
| 20260509013041 | 52 | 0 | 0.0 | 2.0 | 0.00 | 0.00 | 0.00 | 78 | 1011.3 |
| 20260509012518 | 53 | 326 | 1.0 | 3.0 | 0.00 | 0.00 | 0.00 | 77 | 1011.3 |
| 20260509012017 | 53 | 180 | 0.0 | 3.0 | 0.00 | 0.00 | 0.00 | 75 | 1011.0 |
| 20260509011533 | 53 | 134 | 1.0 | 3.0 | 0.00 | 0.00 | 0.00 | 75 | 1010.8 |
| 20260509011021 | 52 | 101 | 0.0 | 2.0 | 0.00 | 0.00 | 0.00 | 75 | 1010.7 |
| 20260509010520 | 52 | 90 | 0.0 | 2.0 | 0.00 | 0.00 | 0.00 | 76 | 1010.7 |
| 20260509010035 | 53 | 110 | 1.0 | 3.0 | 0.00 | 0.00 | 0.00 | 75 | 1010.6 |
| 20260509005520 | 53 | 130 | 1.0 | 3.0 | 0.00 | 0.00 | 0.00 | 75 | 1010.6 |
| 20260509005017 | 52 | 0 | 1.0 | 3.0 | 0.00 | 0.00 | 0.00 | 76 | 1010.5 |
| 20260509004549 | 53 | 123 | 0.0 | 3.0 | 0.00 | 0.00 | 0.00 | 76 | 1010.5 |
| 20260509004017 | 53 | 110 | 1.0 | 3.0 | 0.00 | 0.00 | 0.00 | 76 | 1010.6 |
| 20260509003519 | 53 | 111 | 0.0 | 3.0 | 0.00 | 0.00 | 0.00 | 75 | 1010.6 |
| 20260509003040 | 53 | 104 | 1.0 | 3.0 | 0.00 | 0.00 | 0.00 | 75 | 1010.6 |
| 20260509002517 | 53 | 107 | 1.0 | 3.0 | 0.00 | 0.00 | 0.00 | 76 | 1010.6 |
| 20260509002025 | 53 | 124 | 1.0 | 2.0 | 0.00 | 0.00 | 0.00 | 76 | 1010.6 |
| 20260509001538 | 53 | 0 | 0.0 | 1.0 | 0.00 | 0.00 | 0.00 | 76 | 1010.6 |
| 20260509001019 | 53 | 125 | 0.0 | 1.0 | 0.00 | 0.00 | 0.00 | 75 | 1010.6 |
| 20260509000519 | 53 | 89 | 0.0 | 2.0 | 0.00 | 0.00 | 0.00 | 75 | 1010.6 |
| 20260509000044 | 54 | 0 | 0.0 | 3.0 | 0.00 | 0.00 | 0.00 | 75 | 1010.6 |
| 20260508235518 | 54 | 0 | 1.0 | 3.0 | 0.00 | 0.00 | 0.00 | 74 | 1010.6 |
| 20260508235018 | 54 | 0 | 0.0 | 0.0 | 0.00 | 0.00 | 0.00 | 75 | 1010.7 |
| 20260508234534 | 54 | 0 | 0.0 | 0.0 | 0.00 | 0.00 | 0.00 | 74 | 1010.9 |
| 20260508234020 | 54 | 0 | 0.0 | 0.0 | 0.00 | 0.00 | 0.00 | 74 | 1010.8 |
| 20260508233517 | 54 | 0 | 0.0 | 0.0 | 0.00 | 0.00 | 0.00 | 74 | 1010.9 |
| 20260508233034 | 54 | 0 | 0.0 | 0.0 | 0.00 | 0.00 | 0.00 | 73 | 1010.9 |
| 20260508232517 | 54 | 0 | 0.0 | 0.0 | 0.00 | 0.00 | 0.00 | 73 | 1010.7 |
| 20260508232019 | 55 | 0 | 0.0 | 0.0 | 0.00 | 0.00 | 0.00 | 73 | 1010.7 |
| 20260508231548 | 54 | 0 | 0.0 | 0.0 | 0.00 | 0.00 | 0.00 | 73 | 1010.7 |
| 20260508231019 | 55 | 0 | 0.0 | 0.0 | 0.00 | 0.00 | 0.00 | 74 | 1010.8 |
| 20260508230521 | 55 | 0 | 0.0 | 0.0 | 0.00 | 0.00 | 0.00 | 74 | 1010.9 |
| 20260508230040 | 55 | 0 | 0.0 | 0.0 | 0.00 | 0.00 | 0.00 | 72 | 1010.9 |
| 20260508225519 | 55 | 0 | 0.0 | 0.0 | 0.00 | 0.00 | 0.00 | 72 | 1011.0 |
| 20260508225039 | 55 | 0 | 0.0 | 0.0 | 0.00 | 0.00 | 0.00 | 71 | 1011.0 |
| 20260508224540 | 55 | 0 | 0.0 | 0.0 | 0.00 | 0.00 | 0.00 | 71 | 1011.0 |
| 20260508224019 | 55 | 0 | 0.0 | 0.0 | 0.00 | 0.00 | 0.00 | 70 | 1010.9 |
| 20260508223516 | 56 | 0 | 0.0 | 0.0 | 0.00 | 0.00 | 0.00 | 69 | 1010.9 |
| 20260508223037 | 56 | 0 | 0.0 | 0.0 | 0.00 | 0.00 | 0.00 | 66 | 1010.9 |
| 20260508222518 | 56 | 0 | 0.0 | 0.0 | 0.00 | 0.00 | 0.00 | 65 | 1010.7 |
| 20260508222017 | 57 | 0 | 0.0 | 0.0 | 0.00 | 0.00 | 0.00 | 65 | 1010.8 |
| 20260508221539 | 57 | 0 | 0.0 | 0.0 | 0.00 | 0.00 | 0.00 | 65 | 1010.8 |
| 20260508221020 | 57 | 0 | 0.0 | 0.0 | 0.00 | 0.00 | 0.00 | 62 | 1010.7 |
| 20260508220518 | 57 | 0 | 0.0 | 0.0 | 0.00 | 0.00 | 0.00 | 63 | 1010.8 |
| 20260508220041 | 57 | 0 | 0.0 | 0.0 | 0.00 | 0.00 | 0.00 | 62 | 1010.8 |
| 20260508215520 | 57 | 0 | 0.0 | 0.0 | 0.00 | 0.00 | 0.00 | 62 | 1010.8 |
| 20260508215017 | 57 | 0 | 0.0 | 0.0 | 0.00 | 0.00 | 0.00 | 63 | 1010.8 |
| 20260508214542 | 57 | 0 | 0.0 | 1.0 | 0.00 | 0.00 | 0.00 | 65 | 1010.8 |
| 20260508214017 | 57 | 0 | 0.0 | 1.0 | 0.00 | 0.00 | 0.00 | 63 | 1010.9 |
| 20260508213516 | 57 | 259 | 0.0 | 3.0 | 0.00 | 0.00 | 0.00 | 62 | 1010.9 |
| 20260508213046 | 57 | 0 | 0.0 | 3.0 | 0.00 | 0.00 | 0.00 | 62 | 1011.0 |
| 20260508212519 | 57 | 0 | 0.0 | 2.0 | 0.00 | 0.00 | 0.00 | 64 | 1011.0 |
| 20260508212024 | 57 | 0 | 0.0 | 2.0 | 0.00 | 0.00 | 0.00 | 67 | 1011.0 |
| 20260508211536 | 56 | 0 | 0.0 | 1.0 | 0.00 | 0.00 | 0.00 | 67 | 1011.1 |
| 20260508211022 | 56 | 0 | 0.0 | 1.0 | 0.00 | 0.00 | 0.00 | 67 | 1011.3 |
| 20260508210518 | 56 | 0 | 0.0 | 0.0 | 0.00 | 0.00 | 0.00 | 68 | 1011.4 |
| 20260508210036 | 56 | 0 | 0.0 | 0.0 | 0.00 | 0.00 | 0.00 | 67 | 1011.4 |
| 20260508205519 | 56 | 0 | 0.0 | 0.0 | 0.00 | 0.00 | 0.00 | 66 | 1011.4 |
| 20260508205018 | 56 | 0 | 0.0 | 2.0 | 0.00 | 0.00 | 0.00 | 66 | 1011.3 |
| 20260508204542 | 56 | 0 | 0.0 | 2.0 | 0.00 | 0.00 | 0.00 | 67 | 1011.5 |
| 20260508204017 | 56 | 0 | 0.0 | 2.0 | 0.00 | 0.00 | 0.00 | 69 | 1011.6 |
| 20260508203517 | 55 | 0 | 0.0 | 3.0 | 0.00 | 0.00 | 0.00 | 69 | 1011.6 |
| 20260508203050 | 55 | 0 | 0.0 | 3.0 | 0.00 | 0.00 | 0.00 | 68 | 1011.7 |
| 20260508202517 | 55 | 290 | 0.0 | 4.0 | 0.00 | 0.00 | 0.00 | 67 | 1011.7 |
| 20260508202019 | 55 | 146 | 0.0 | 5.0 | 0.00 | 0.00 | 0.00 | 68 | 1012.0 |
| 20260508201551 | 55 | 0 | 1.0 | 5.0 | 0.00 | 0.00 | 0.00 | 67 | 1012.2 |
| 20260508201018 | 55 | 323 | 1.0 | 5.0 | 0.00 | 0.00 | 0.00 | 67 | 1012.1 |
| 20260508200517 | 55 | 295 | 0.0 | 7.0 | 0.00 | 0.00 | 0.00 | 67 | 1012.3 |
| 20260508200043 | 55 | 0 | 2.0 | 7.0 | 0.00 | 0.00 | 0.00 | 66 | 1012.4 |
| 20260508195517 | 55 | 77 | 1.0 | 5.0 | 0.00 | 0.00 | 0.00 | 66 | 1012.5 |
| 20260508195019 | 55 | 308 | 1.0 | 6.0 | 0.00 | 0.00 | 0.00 | 66 | 1012.5 |
| 20260508194539 | 55 | 314 | 1.0 | 12.0 | 0.00 | 0.00 | 0.00 | 65 | 1012.6 |
| 20260508194019 | 56 | 304 | 2.0 | 12.0 | 0.00 | 0.00 | 0.00 | 63 | 1012.6 |
| 20260508193519 | 56 | 245 | 4.0 | 12.0 | 0.00 | 0.00 | 0.00 | 63 | 1012.6 |
| 20260508193033 | 56 | 331 | 1.0 | 10.0 | 0.00 | 0.00 | 0.00 | 62 | 1012.5 |
| 20260508192518 | 56 | 145 | 3.0 | 10.0 | 0.00 | 0.00 | 0.00 | 63 | 1012.4 |
| 20260508192018 | 57 | 329 | 2.0 | 7.0 | 0.00 | 0.00 | 0.00 | 63 | 1012.4 |
| 20260508191534 | 56 | 307 | 1.0 | 7.0 | 0.00 | 0.00 | 0.00 | 63 | 1012.3 |
| 20260508191017 | 57 | 152 | 1.0 | 5.0 | 0.00 | 0.00 | 0.00 | 63 | 1012.5 |
| 20260508190518 | 57 | 174 | 0.0 | 5.0 | 0.00 | 0.00 | 0.00 | 63 | 1012.5 |
| 20260508190044 | 57 | 283 | 1.0 | 10.0 | 0.00 | 0.00 | 0.00 | 61 | 1012.5 |